When you browse on this site, cookies collect data to enhance your experience and personalize the content and advertising you see.
Visit our Privacy Policy to learn more. By continuing to use the site, you agree to this use of cookies and data.
  • In Slovakia
  • List of Countries
  • For 7 days
  • Water Temperature
  • Weather Map
  • Weather Widgets
  • user-avatar
    Login

    Hourly Weather Minsk

    Today, 23 August, Friday

    Time Temperature Precipitation Wind Pressure Humidity
    00:00 +14°C° 0 mm 1 mps 752 mmHg 77%
    01:00 +13°C° 0 mm 1 mps 752 mmHg 78%
    02:00 +13°C° 0 mm 1 mps 753 mmHg 79%
    03:00 +13°C° 0 mm 1 mps 753 mmHg 81%
    04:00 +12°C° 0 mm 1 mps 752 mmHg 83%
    05:00 +12°C° 0 mm 1 mps 752 mmHg 85%
    06:00 +13°C° 0 mm 1 mps 753 mmHg 80%
    07:00 +15°C° 0 mm 1 mps 753 mmHg 76%
    08:00 +18°C° 0 mm 1 mps 753 mmHg 70%
    09:00 +19°C° 0 mm 1 mps 753 mmHg 65%
    10:00 +19°C° 0 mm 0 mps 753 mmHg 60%
    11:00 +20°C° 0 mm 0 mps 753 mmHg 55%
    12:00 +20°C° 0 mm 0 mps 753 mmHg 52%
    13:00 +21°C° 0 mm 0 mps 753 mmHg 49%
    14:00 +22°C° 0 mm 0 mps 752 mmHg 47%
    15:00 +21°C° 0 mm 0 mps 752 mmHg 48%
    16:00 +21°C° 0 mm 0 mps 752 mmHg 49%
    17:00 +21°C° 0 mm 0 mps 752 mmHg 50%
    18:00 +19°C° 0 mm 0 mps 752 mmHg 55%
    19:00 +17°C° 0 mm 0 mps 752 mmHg 60%
    20:00 +15°C° 0 mm 0 mps 751 mmHg 66%
    21:00 +15°C° 0 mm 0 mps 751 mmHg 68%
    22:00 +14°C° 0 mm 0 mps 751 mmHg 69%
    23:00 +14°C° 0 mm 0 mps 751 mmHg 71%

    Tomorrow, 24 August, Saturday

    Time Temperature Precipitation Wind Pressure Humidity
    00:00 +14°C° 0 mm 1 mps 751 mmHg 72%
    01:00 +14°C° 0 mm 1 mps 751 mmHg 74%
    02:00 +14°C° 0 mm 1 mps 751 mmHg 75%
    03:00 +13°C° 0 mm 1 mps 751 mmHg 76%
    04:00 +13°C° 0 mm 1 mps 751 mmHg 77%
    05:00 +13°C° 0 mm 1 mps 751 mmHg 78%
    06:00 +14°C° 0 mm 1 mps 751 mmHg 75%
    07:00 +16°C° 0 mm 2 mps 751 mmHg 73%
    08:00 +17°C° 0 mm 2 mps 751 mmHg 70%
    09:00 +19°C° 0 mm 2 mps 751 mmHg 65%
    10:00 +20°C° 0 mm 2 mps 751 mmHg 60%
    11:00 +23°C° 0 mm 2 mps 751 mmHg 56%
    12:00 +23°C° 0 mm 2 mps 751 mmHg 54%
    13:00 +24°C° 0 mm 2 mps 751 mmHg 53%
    14:00 +24°C° 0 mm 2 mps 750 mmHg 51%
    15:00 +24°C° 0 mm 2 mps 750 mmHg 54%
    16:00 +24°C° 0 mm 2 mps 750 mmHg 56%
    17:00 +24°C° 0 mm 2 mps 750 mmHg 59%
    18:00 +21°C° 0 mm 2 mps 750 mmHg 64%
    19:00 +19°C° 0 mm 2 mps 750 mmHg 69%
    20:00 +19°C° 0 mm 1 mps 750 mmHg 74%
    21:00 +18°C° 0 mm 1 mps 750 mmHg 76%
    22:00 +18°C° 0 mm 1 mps 750 mmHg 78%
    23:00 +16°C° 0 mm 2 mps 750 mmHg 80%

    Day after tomorrow, 25 August, Sunday

    Time Temperature Precipitation Wind Pressure Humidity
    00:00 +16°C° 0 mm 1 mps 750 mmHg 83%
    01:00 +16°C° 0 mm 1 mps 750 mmHg 86%
    02:00 +16°C° 0 mm 1 mps 750 mmHg 89%
    03:00 +15°C° 0 mm 1 mps 750 mmHg 90%
    04:00 +15°C° 0 mm 1 mps 750 mmHg 91%
    05:00 +15°C° 0 mm 1 mps 750 mmHg 92%
    06:00 +16°C° 0 mm 1 mps 750 mmHg 89%
    07:00 +19°C° 0 mm 1 mps 750 mmHg 85%
    08:00 +20°C° 0 mm 1 mps 750 mmHg 82%
    09:00 +20°C° 0 mm 2 mps 751 mmHg 76%
    10:00 +23°C° 0 mm 2 mps 751 mmHg 71%
    11:00 +24°C° 0 mm 2 mps 751 mmHg 65%
    12:00 +24°C° 0 mm 2 mps 751 mmHg 63%
    13:00 +25°C° 0 mm 2 mps 751 mmHg 60%
    14:00 +25°C° 0 mm 2 mps 751 mmHg 58%
    15:00 +25°C° 0 mm 1 mps 750 mmHg 58%
    16:00 +25°C° 0 mm 1 mps 750 mmHg 59%
    17:00 +25°C° 0 mm 1 mps 750 mmHg 59%
    18:00 +23°C° 0 mm 2 mps 750 mmHg 65%
    19:00 +20°C° 0 mm 2 mps 750 mmHg 70%
    20:00 +18°C° 0 mm 2 mps 750 mmHg 76%
    21:00 +17°C° 0 mm 2 mps 750 mmHg 79%
    22:00 +17°C° 0 mm 2 mps 750 mmHg 81%
    23:00 +16°C° 0 mm 2 mps 751 mmHg 84%

    26 August, Monday

    Time Temperature Precipitation Wind Pressure Humidity
    00:00 +16°C° 0 mm 2 mps 750 mmHg 86%
    01:00 +15°C° 0 mm 2 mps 750 mmHg 87%
    02:00 +15°C° 0 mm 2 mps 750 mmHg 89%
    03:00 +15°C° 0 mm 1 mps 750 mmHg 90%
    04:00 +15°C° 0 mm 1 mps 750 mmHg 90%
    05:00 +14°C° 0 mm 1 mps 750 mmHg 91%
    06:00 +16°C° 0 mm 1 mps 750 mmHg 86%
    07:00 +18°C° 0 mm 1 mps 751 mmHg 81%
    08:00 +20°C° 0 mm 1 mps 751 mmHg 77%
    09:00 +21°C° 0 mm 1 mps 751 mmHg 72%
    10:00 +21°C° 0 mm 2 mps 751 mmHg 68%
    11:00 +24°C° 0 mm 2 mps 751 mmHg 63%
    12:00 +25°C° 0 mm 2 mps 751 mmHg 60%
    13:00 +25°C° 0 mm 1 mps 750 mmHg 57%
    14:00 +26°C° 0 mm 1 mps 750 mmHg 54%
    15:00 +26°C° 0 mm 1 mps 750 mmHg 55%
    16:00 +26°C° 0 mm 1 mps 749 mmHg 55%
    17:00 +26°C° 0 mm 1 mps 749 mmHg 56%
    18:00 +22°C° 0 mm 0 mps 749 mmHg 62%
    19:00 +20°C° 0 mm 0 mps 749 mmHg 69%
    20:00 +18°C° 0 mm 0 mps 749 mmHg 75%
    21:00 +18°C° 0 mm 0 mps 749 mmHg 77%
    22:00 +19°C° 0 mm 1 mps 749 mmHg 78%
    23:00 +18°C° 0 mm 1 mps 749 mmHg 80%

    27 August, Tuesday

    Time Temperature Precipitation Wind Pressure Humidity
    00:00 +18°C° 0 mm 1 mps 749 mmHg 81%
    01:00 +16°C° 0 mm 0 mps 749 mmHg 82%
    02:00 +16°C° 0 mm 0 mps 749 mmHg 83%
    03:00 +16°C° 0 mm 0 mps 749 mmHg 84%
    04:00 +16°C° 0 mm 1 mps 749 mmHg 85%
    05:00 +16°C° 0 mm 1 mps 749 mmHg 86%
    06:00 +19°C° 0 mm 1 mps 749 mmHg 83%
    07:00 +20°C° 0 mm 1 mps 749 mmHg 80%
    08:00 +21°C° 0 mm 1 mps 749 mmHg 77%
    09:00 +22°C° 0 mm 1 mps 749 mmHg 73%
    10:00 +24°C° 0 mm 1 mps 749 mmHg 70%
    11:00 +25°C° 0 mm 2 mps 749 mmHg 66%
    12:00 +26°C° 0.1 mm 2 mps 749 mmHg 64%
    13:00 +26°C° 0.1 mm 2 mps 749 mmHg 61%
    14:00 +27°C° 0.1 mm 2 mps 749 mmHg 59%
    15:00 +26°C° 0.1 mm 2 mps 749 mmHg 62%
    16:00 +26°C° 0.1 mm 2 mps 749 mmHg 65%
    17:00 +26°C° 0.1 mm 2 mps 749 mmHg 68%
    18:00 +24°C° 0 mm 2 mps 749 mmHg 72%
    19:00 +21°C° 0 mm 2 mps 749 mmHg 77%
    20:00 +20°C° 0 mm 2 mps 749 mmHg 82%
    21:00 +19°C° 0 mm 2 mps 749 mmHg 83%
    22:00 +18°C° 0 mm 2 mps 749 mmHg 85%
    23:00 +18°C° 0 mm 2 mps 749 mmHg 86%

    28 August, Wednesday

    Time Temperature Precipitation Wind Pressure Humidity
    00:00 +17°C° 0 mm 2 mps 749 mmHg 86%
    01:00 +16°C° 0 mm 2 mps 749 mmHg 87%
    02:00 +16°C° 0 mm 2 mps 749 mmHg 87%
    03:00 +16°C° 0 mm 2 mps 749 mmHg 88%
    04:00 +15°C° 0 mm 2 mps 749 mmHg 90%
    05:00 +15°C° 0 mm 2 mps 749 mmHg 91%
    06:00 +16°C° 0 mm 2 mps 749 mmHg 87%
    07:00 +17°C° 0 mm 2 mps 749 mmHg 84%
    08:00 +19°C° 0 mm 2 mps 749 mmHg 80%
    09:00 +20°C° 0 mm 2 mps 750 mmHg 75%
    10:00 +21°C° 0 mm 3 mps 750 mmHg 70%
    11:00 +24°C° 0 mm 3 mps 750 mmHg 64%
    12:00 +24°C° 0 mm 3 mps 750 mmHg 61%
    13:00 +25°C° 0 mm 3 mps 749 mmHg 58%
    14:00 +25°C° 0 mm 2 mps 749 mmHg 55%
    15:00 +25°C° 0 mm 2 mps 749 mmHg 57%
    16:00 +24°C° 0 mm 3 mps 749 mmHg 59%
    17:00 +24°C° 0 mm 3 mps 749 mmHg 62%
    18:00 +21°C° 0 mm 3 mps 749 mmHg 68%
    19:00 +19°C° 0 mm 3 mps 749 mmHg 74%
    20:00 +18°C° 0 mm 3 mps 749 mmHg 80%
    21:00 +17°C° 0 mm 4 mps 749 mmHg 81%
    22:00 +15°C° 0 mm 4 mps 749 mmHg 82%
    23:00 +14°C° 0 mm 4 mps 749 mmHg 84%
    Show more